owner,sensor,date,latitude,longitude,vertical_datum,direction_of_sea_water_velocity,sea_water_speed,upward_sea_water_velocity,qcFlag 
ADCP,ioos:station:wmo:42387:1,2014-06-01T00:14:00Z,28.2670,-88.3990,79.7,180.0,25.5,-6.6,'1111122,1111122,1111122' 
ADCP,ioos:station:wmo:42387:1,2014-06-01T01:14:00Z,28.2670,-88.3990,79.7,189.0,19.5,-7.7,'1111122,1111122,1111122' 
ADCP,ioos:station:wmo:42387:1,2014-06-01T03:14:00Z,28.2670,-88.3990,79.7,194.0,19.3,-8.8,'1111122,1111122,1111122' 
ADCP,ioos:station:wmo:42387:1,2014-06-01T04:14:00Z,28.2670,-88.3990,79.7,201.0,18.9,-9.8,'1111122,1111122,1111122' 
ADCP,ioos:station:wmo:42387:1,2014-06-01T05:14:00Z,28.2670,-88.3990,79.7,199.0,19.0,-9.9,'1111122,1111122,1111122' 
ADCP,ioos:station:wmo:42387:1,2014-06-01T05:34:00Z,28.2670,-88.3990,79.7,200.0,19.3,-9.9,'1111122,1111122,1111122' 
ADCP,ioos:station:wmo:42387:1,2014-06-01T07:14:00Z,28.2670,-88.3990,79.7,198.0,16.2,-10.2,'1111122,1111122,1111122' 
ADCP,ioos:station:wmo:42387:1,2014-06-01T08:14:00Z,28.2670,-88.3990,79.7,203.0,19.0,-9.2,'1111122,1111122,1111122' 
ADCP,ioos:station:wmo:42387:1,2014-06-01T09:14:00Z,28.2670,-88.3990,79.7,206.0,19.6,-9.8,'1111122,1111122,1111122' 
ADCP,ioos:station:wmo:42387:1,2014-06-01T10:14:00Z,28.2670,-88.3990,79.7,211.0,21.0,-8.6,'1111122,1111122,1111122' 
ADCP,ioos:station:wmo:42387:1,2014-06-01T11:14:00Z,28.2670,-88.3990,79.7,188.0,19.6,-8.0,'1111122,1111122,1111122' 
ADCP,ioos:station:wmo:42387:1,2014-06-01T12:14:00Z,28.2670,-88.3990,79.7,191.0,18.0,-6.6,'1111122,1111122,1111122' 
ADCP,ioos:station:wmo:42387:1,2014-06-01T13:14:00Z,28.2670,-88.3990,79.7,201.0,16.3,-5.5,'1111122,1111122,1111122' 
ADCP,ioos:station:wmo:42387:1,2014-06-01T14:14:00Z,28.2670,-88.3990,79.7,208.0,14.4,-5.3,'1111122,1111122,1111122' 
ADCP,ioos:station:wmo:42387:1,2014-06-01T15:14:00Z,28.2670,-88.3990,79.7,185.0,8.6,-4.8,'1111122,1111122,1111122' 
ADCP,ioos:station:wmo:42387:1,2014-06-01T15:54:00Z,28.2670,-88.3990,79.7,199.0,9.0,-4.0,'1111122,1111122,1111122' 
ADCP,ioos:station:wmo:42387:1,2014-06-01T17:14:00Z,28.2670,-88.3990,79.7,205.0,6.3,-4.0,'1111122,1111122,1111122' 
ADCP,ioos:station:wmo:42387:1,2014-06-01T18:14:00Z,28.2670,-88.3990,79.7,168.0,4.5,-6.1,'1111122,1111122,1111122' 
ADCP,ioos:station:wmo:42387:1,2014-06-01T19:14:00Z,28.2670,-88.3990,79.7,164.0,6.3,-6.4,'1111122,1111122,1111122' 
ADCP,ioos:station:wmo:42387:1,2014-06-01T20:14:00Z,28.2670,-88.3990,79.7,157.0,9.8,-4.8,'1111122,1111122,1111122' 
ADCP,ioos:station:wmo:42387:1,2014-06-01T21:14:00Z,28.2670,-88.3990,79.7,172.0,9.8,-6.7,'1111122,1111122,1111122' 
ADCP,ioos:station:wmo:42387:1,2014-06-01T22:14:00Z,28.2670,-88.3990,79.7,171.0,10.1,-9.1,'1111122,1111122,1111122' 
ADCP,ioos:station:wmo:42387:1,2014-06-01T23:14:00Z,28.2670,-88.3990,79.7,162.0,14.7,-6.1,'1111122,1111122,1111122' 
ADCP,ioos:station:wmo:42387:1,2014-06-02T01:14:00Z,28.2670,-88.3990,79.7,183.0,13.5,-8.9,'1111122,1111122,1111122' 
ADCP,ioos:station:wmo:42387:1,2014-06-02T02:14:00Z,28.2670,-88.3990,79.7,184.0,13.6,-9.8,'1111122,1111122,1111122' 
ADCP,ioos:station:wmo:42387:1,2014-06-02T03:14:00Z,28.2670,-88.3990,79.7,191.0,20.9,-10.1,'1111122,1111122,1111122' 
ADCP,ioos:station:wmo:42387:1,2014-06-02T04:14:00Z,28.2670,-88.3990,79.7,196.0,22.2,-11.0,'1111122,1111122,1111122' 
ADCP,ioos:station:wmo:42387:1,2014-06-02T05:14:00Z,28.2670,-88.3990,79.7,199.0,23.5,-10.0,'1111122,1111122,1111122' 
ADCP,ioos:station:wmo:42387:1,2014-06-02T05:54:00Z,28.2670,-88.3990,79.7,203.0,24.0,-8.9,'1111122,1111122,1111122' 
ADCP,ioos:station:wmo:42387:1,2014-06-02T07:14:00Z,28.2670,-88.3990,79.7,217.0,26.2,-8.4,'1111122,1111122,1111122' 
ADCP,ioos:station:wmo:42387:1,2014-06-02T08:14:00Z,28.2670,-88.3990,79.7,228.0,25.2,-8.5,'1111122,1111122,1111122' 
ADCP,ioos:station:wmo:42387:1,2014-06-02T09:14:00Z,28.2670,-88.3990,79.7,231.0,20.9,-8.3,'1111122,1111122,1111122' 
ADCP,ioos:station:wmo:42387:1,2014-06-02T09:54:00Z,28.2670,-88.3990,79.7,239.0,20.4,-7.5,'1111122,1111122,1111122' 
ADCP,ioos:station:wmo:42387:1,2014-06-02T11:14:00Z,28.2670,-88.3990,79.7,221.0,12.8,-7.0,'1111122,1111122,1111122' 
ADCP,ioos:station:wmo:42387:1,2014-06-02T12:14:00Z,28.2670,-88.3990,79.7,240.0,13.2,-7.8,'1111122,1111122,1111122' 
ADCP,ioos:station:wmo:42387:1,2014-06-02T14:14:00Z,28.2670,-88.3990,79.7,230.0,6.8,-6.2,'1111122,1111122,1111122' 
ADCP,ioos:station:wmo:42387:1,2014-06-02T15:14:00Z,28.2670,-88.3990,79.7,209.0,7.9,-4.7,'1111122,1111122,1111122' 
ADCP,ioos:station:wmo:42387:1,2014-06-02T15:54:00Z,28.2670,-88.3990,79.7,170.0,4.6,-5.8,'1111122,1111122,1111122' 
ADCP,ioos:station:wmo:42387:1,2014-06-02T17:14:00Z,28.2670,-88.3990,79.7,178.0,2.7,-6.6,'1111122,1111122,1111122' 
ADCP,ioos:station:wmo:42387:1,2014-06-02T18:14:00Z,28.2670,-88.3990,79.7,139.0,5.8,-4.3,'1111122,1111122,1111122' 
ADCP,ioos:station:wmo:42387:1,2014-06-02T19:14:00Z,28.2670,-88.3990,79.7,153.0,6.9,-4.2,'1111122,1111122,1111122' 
ADCP,ioos:station:wmo:42387:1,2014-06-02T20:14:00Z,28.2670,-88.3990,79.7,133.0,6.7,-6.4,'1111122,1111122,1111122' 
ADCP,ioos:station:wmo:42387:1,2014-06-02T21:14:00Z,28.2670,-88.3990,79.7,145.0,9.7,-4.1,'1111122,1111122,1111122' 
ADCP,ioos:station:wmo:42387:1,2014-06-02T22:14:00Z,28.2670,-88.3990,79.7,145.0,8.0,-7.0,'1111122,1111122,1111122' 
ADCP,ioos:station:wmo:42387:1,2014-06-02T23:14:00Z,28.2670,-88.3990,79.7,159.0,9.0,-9.3,'1111122,1111122,1111122' 
ADCP,ioos:station:wmo:42387:1,2014-06-03T01:14:00Z,28.2670,-88.3990,79.7,190.0,12.2,-8.1,'1111122,1111122,1111122' 
ADCP,ioos:station:wmo:42387:1,2014-06-03T02:14:00Z,28.2670,-88.3990,79.7,198.0,16.2,-7.9,'1111122,1111122,1111122' 
ADCP,ioos:station:wmo:42387:1,2014-06-03T03:14:00Z,28.2670,-88.3990,79.7,200.0,19.6,-7.9,'1111122,1111122,1111122' 
ADCP,ioos:station:wmo:42387:1,2014-06-03T04:14:00Z,28.2670,-88.3990,79.7,207.0,17.3,-11.3,'1111122,1111122,1111122' 
ADCP,ioos:station:wmo:42387:1,2014-06-03T05:14:00Z,28.2670,-88.3990,79.7,209.0,21.2,-10.4,'1111122,1111122,1111122' 
ADCP,ioos:station:wmo:42387:1,2014-06-03T05:54:00Z,28.2670,-88.3990,79.7,213.0,19.5,-11.0,'1111122,1111122,1111122' 
ADCP,ioos:station:wmo:42387:1,2014-06-03T07:14:00Z,28.2670,-88.3990,79.7,218.0,23.2,-9.0,'1111122,1111122,1111122' 
ADCP,ioos:station:wmo:42387:1,2014-06-03T08:14:00Z,28.2670,-88.3990,79.7,229.0,22.2,-9.3,'1111122,1111122,1111122' 
ADCP,ioos:station:wmo:42387:1,2014-06-03T09:14:00Z,28.2670,-88.3990,79.7,231.0,24.2,-8.1,'1111122,1111122,1111122' 
ADCP,ioos:station:wmo:42387:1,2014-06-03T10:14:00Z,28.2670,-88.3990,79.7,242.0,19.3,-9.4,'1111122,1111122,1111122' 
ADCP,ioos:station:wmo:42387:1,2014-06-03T11:14:00Z,28.2670,-88.3990,79.7,202.0,13.8,-7.4,'1111122,1111122,1111122' 
ADCP,ioos:station:wmo:42387:1,2014-06-03T12:14:00Z,28.2670,-88.3990,79.7,211.0,14.5,-7.6,'1111122,1111122,1111122' 
ADCP,ioos:station:wmo:42387:1,2014-06-03T13:14:00Z,28.2670,-88.3990,79.7,219.0,9.8,-9.2,'1111122,1111122,1111122' 
ADCP,ioos:station:wmo:42387:1,2014-06-03T14:14:00Z,28.2670,-88.3990,79.7,219.0,12.4,-6.4,'1111122,1111122,1111122' 
ADCP,ioos:station:wmo:42387:1,2014-06-03T15:14:00Z,28.2670,-88.3990,79.7,215.0,13.7,-3.9,'1111122,1111122,1111122' 
ADCP,ioos:station:wmo:42387:1,2014-06-03T15:54:00Z,28.2670,-88.3990,79.7,199.0,12.5,-0.6,'1111122,1111122,1111122' 
ADCP,ioos:station:wmo:42387:1,2014-06-03T17:14:00Z,28.2670,-88.3990,79.7,187.0,9.4,-3.3,'1111122,1111122,1111122' 
ADCP,ioos:station:wmo:42387:1,2014-06-03T18:14:00Z,28.2670,-88.3990,79.7,177.0,8.1,-5.2,'1111122,1111122,1111122' 
ADCP,ioos:station:wmo:42387:1,2014-06-03T19:14:00Z,28.2670,-88.3990,79.7,174.0,11.5,-2.6,'1111122,1111122,1111122' 
ADCP,ioos:station:wmo:42387:1,2014-06-03T20:14:00Z,28.2670,-88.3990,79.7,181.0,8.2,-4.4,'1111122,1111122,1111122' 
ADCP,ioos:station:wmo:42387:1,2014-06-03T21:14:00Z,28.2670,-88.3990,79.7,193.0,9.1,-3.2,'1111122,1111122,1111122' 
ADCP,ioos:station:wmo:42387:1,2014-06-03T21:54:00Z,28.2670,-88.3990,79.7,193.0,11.2,-4.2,'1111122,1111122,1111122' 
ADCP,ioos:station:wmo:42387:1,2014-06-03T23:14:00Z,28.2670,-88.3990,79.7,180.0,10.4,-5.3,'1111122,1111122,1111122' 
ADCP,ioos:station:wmo:42387:1,2014-06-04T00:14:00Z,28.2670,-88.3990,79.7,185.0,14.1,-6.3,'1111122,1111122,1111122' 
ADCP,ioos:station:wmo:42387:1,2014-06-04T01:14:00Z,28.2670,-88.3990,79.7,181.0,13.6,-6.0,'1111122,1111122,1111122' 
ADCP,ioos:station:wmo:42387:1,2014-06-04T03:14:00Z,28.2670,-88.3990,79.7,200.0,15.4,-8.4,'1111122,1111122,1111122' 
ADCP,ioos:station:wmo:42387:1,2014-06-04T04:14:00Z,28.2670,-88.3990,79.7,201.0,16.8,-8.7,'1111122,1111122,1111122' 
ADCP,ioos:station:wmo:42387:1,2014-06-04T05:14:00Z,28.2670,-88.3990,79.7,206.0,21.8,-9.3,'1111122,1111122,1111122' 
ADCP,ioos:station:wmo:42387:1,2014-06-04T06:14:00Z,28.2670,-88.3990,79.7,207.0,21.7,-8.6,'1111122,1111122,1111122' 
ADCP,ioos:station:wmo:42387:1,2014-06-04T07:14:00Z,28.2670,-88.3990,79.7,213.0,22.1,-8.7,'1111122,1111122,1111122' 
ADCP,ioos:station:wmo:42387:1,2014-06-04T08:14:00Z,28.2670,-88.3990,79.7,213.0,21.7,-7.8,'1111122,1111122,1111122' 
ADCP,ioos:station:wmo:42387:1,2014-06-04T09:14:00Z,28.2670,-88.3990,79.7,216.0,19.5,-7.1,'1111122,1111122,1111122' 
ADCP,ioos:station:wmo:42387:1,2014-06-04T10:14:00Z,28.2670,-88.3990,79.7,211.0,17.5,-5.4,'1111122,1111122,1111122' 
ADCP,ioos:station:wmo:42387:1,2014-06-04T11:14:00Z,28.2670,-88.3990,79.7,184.0,17.6,-6.5,'1111122,1111122,1111122' 
ADCP,ioos:station:wmo:42387:1,2014-06-04T12:14:00Z,28.2670,-88.3990,79.7,185.0,21.6,-4.9,'1111122,1111122,1111122' 
ADCP,ioos:station:wmo:42387:1,2014-06-04T13:14:00Z,28.2670,-88.3990,79.7,188.0,22.9,-5.4,'1111122,1111122,1111122' 
ADCP,ioos:station:wmo:42387:1,2014-06-04T14:14:00Z,28.2670,-88.3990,79.7,189.0,21.6,-5.1,'1111122,1111122,1111122' 
ADCP,ioos:station:wmo:42387:1,2014-06-04T15:14:00Z,28.2670,-88.3990,79.7,200.0,25.5,-3.9,'1111122,1111122,1111122' 
ADCP,ioos:station:wmo:42387:1,2014-06-04T16:14:00Z,28.2670,-88.3990,79.7,215.0,22.2,-5.6,'1111122,1111122,1111122' 
ADCP,ioos:station:wmo:42387:1,2014-06-04T17:14:00Z,28.2670,-88.3990,79.7,216.0,20.9,-4.1,'1111122,1111122,1111122' 
ADCP,ioos:station:wmo:42387:1,2014-06-04T18:14:00Z,28.2670,-88.3990,79.7,217.0,12.1,-6.2,'1111122,1111122,1111122' 
ADCP,ioos:station:wmo:42387:1,2014-06-04T19:14:00Z,28.2670,-88.3990,79.7,225.0,10.3,-4.5,'1111122,1111122,1111122' 
ADCP,ioos:station:wmo:42387:1,2014-06-04T20:14:00Z,28.2670,-88.3990,79.7,230.0,6.7,-5.7,'1111122,1111122,1111122' 
ADCP,ioos:station:wmo:42387:1,2014-06-04T21:14:00Z,28.2670,-88.3990,79.7,180.0,6.5,-4.9,'1111122,1111122,1111122' 
ADCP,ioos:station:wmo:42387:1,2014-06-04T22:14:00Z,28.2670,-88.3990,79.7,188.0,7.5,-6.3,'1111122,1111122,1111122' 
ADCP,ioos:station:wmo:42387:1,2014-06-04T23:14:00Z,28.2670,-88.3990,79.7,153.0,11.9,-5.8,'1111122,1111122,1111122' 
ADCP,ioos:station:wmo:42387:1,2014-06-05T00:14:00Z,28.2670,-88.3990,79.7,156.0,11.7,-7.8,'1111122,1111122,1111122' 
ADCP,ioos:station:wmo:42387:1,2014-06-05T03:14:00Z,28.2670,-88.3990,79.7,204.0,10.6,-6.0,'1111122,1111122,1111122' 
ADCP,ioos:station:wmo:42387:1,2014-06-05T04:14:00Z,28.2670,-88.3990,79.7,209.0,15.2,-6.2,'1111122,1111122,1111122' 
ADCP,ioos:station:wmo:42387:1,2014-06-05T04:54:00Z,28.2670,-88.3990,79.7,217.0,14.6,-7.5,'1111122,1111122,1111122' 
ADCP,ioos:station:wmo:42387:1,2014-06-05T08:14:00Z,28.2670,-88.3990,79.7,216.0,19.1,-6.1,'1111122,1111122,1111122' 
ADCP,ioos:station:wmo:42387:1,2014-06-05T09:14:00Z,28.2670,-88.3990,79.7,210.0,17.8,-5.5,'1111122,1111122,1111122' 
ADCP,ioos:station:wmo:42387:1,2014-06-05T10:14:00Z,28.2670,-88.3990,79.7,204.0,12.4,-6.7,'1111122,1111122,1111122' 
ADCP,ioos:station:wmo:42387:1,2014-06-05T11:14:00Z,28.2670,-88.3990,79.7,181.0,14.6,-6.5,'1111122,1111122,1111122' 
ADCP,ioos:station:wmo:42387:1,2014-06-05T12:14:00Z,28.2670,-88.3990,79.7,179.0,15.4,-5.8,'1111122,1111122,1111122' 
ADCP,ioos:station:wmo:42387:1,2014-06-05T13:14:00Z,28.2670,-88.3990,79.7,184.0,18.5,-4.3,'1111122,1111122,1111122' 
ADCP,ioos:station:wmo:42387:1,2014-06-05T14:14:00Z,28.2670,-88.3990,79.7,186.0,15.2,-7.1,'1111122,1111122,1111122' 
ADCP,ioos:station:wmo:42387:1,2014-06-05T15:14:00Z,28.2670,-88.3990,79.7,185.0,13.9,-4.6,'1111122,1111122,1111122' 
ADCP,ioos:station:wmo:42387:1,2014-06-05T15:54:00Z,28.2670,-88.3990,79.7,186.0,16.3,-2.2,'1111122,1111122,1111122' 
ADCP,ioos:station:wmo:42387:1,2014-06-05T17:14:00Z,28.2670,-88.3990,79.7,188.0,19.9,-3.0,'1111122,1111122,1111122' 
ADCP,ioos:station:wmo:42387:1,2014-06-05T18:14:00Z,28.2670,-88.3990,79.7,184.0,17.6,-2.3,'1111122,1111122,1111122' 
ADCP,ioos:station:wmo:42387:1,2014-06-05T19:14:00Z,28.2670,-88.3990,79.7,184.0,17.9,-2.1,'1111122,1111122,1111122' 
ADCP,ioos:station:wmo:42387:1,2014-06-05T19:54:00Z,28.2670,-88.3990,79.7,177.0,17.5,-1.9,'1111122,1111122,1111122' 
ADCP,ioos:station:wmo:42387:1,2014-06-05T21:14:00Z,28.2670,-88.3990,79.7,185.0,15.2,-1.7,'1111122,1111122,1111122' 
ADCP,ioos:station:wmo:42387:1,2014-06-05T22:14:00Z,28.2670,-88.3990,79.7,184.0,10.7,-4.2,'1111122,1111122,1111122' 
ADCP,ioos:station:wmo:42387:1,2014-06-05T23:14:00Z,28.2670,-88.3990,79.7,185.0,8.6,-5.7,'1111122,1111122,1111122' 
ADCP,ioos:station:wmo:42387:1,2014-06-06T00:14:00Z,28.2670,-88.3990,79.7,189.0,10.1,-4.4,'1111122,1111122,1111122' 
ADCP,ioos:station:wmo:42387:1,2014-06-06T01:14:00Z,28.2670,-88.3990,79.7,198.0,6.4,-5.1,'1111122,1111122,1111122' 
ADCP,ioos:station:wmo:42387:1,2014-06-06T02:14:00Z,28.2670,-88.3990,79.7,238.0,6.2,-5.7,'1111122,1111122,1111122' 
ADCP,ioos:station:wmo:42387:1,2014-06-06T03:14:00Z,28.2670,-88.3990,79.7,236.0,6.4,-4.9,'1111122,1111122,1111122' 
ADCP,ioos:station:wmo:42387:1,2014-06-06T04:14:00Z,28.2670,-88.3990,79.7,209.0,7.2,-3.8,'1111122,1111122,1111122' 
ADCP,ioos:station:wmo:42387:1,2014-06-06T05:14:00Z,28.2670,-88.3990,79.7,206.0,6.4,-5.9,'1111122,1111122,1111122' 
ADCP,ioos:station:wmo:42387:1,2014-06-06T08:14:00Z,28.2670,-88.3990,79.7,205.0,5.1,-4.6,'1111122,1111122,1111122' 
ADCP,ioos:station:wmo:42387:1,2014-06-06T09:14:00Z,28.2670,-88.3990,79.7,199.0,4.9,-4.4,'1111122,1111122,1111122' 
ADCP,ioos:station:wmo:42387:1,2014-06-06T10:14:00Z,28.2670,-88.3990,79.7,168.0,5.9,-3.7,'1111122,1111122,1111122' 
ADCP,ioos:station:wmo:42387:1,2014-06-06T11:14:00Z,28.2670,-88.3990,79.7,154.0,11.9,-4.9,'1111122,1111122,1111122' 
ADCP,ioos:station:wmo:42387:1,2014-06-06T12:14:00Z,28.2670,-88.3990,79.7,158.0,11.8,-6.5,'1111122,1111122,1111122' 
ADCP,ioos:station:wmo:42387:1,2014-06-06T13:14:00Z,28.2670,-88.3990,79.7,174.0,13.7,-3.7,'1111122,1111122,1111122' 
ADCP,ioos:station:wmo:42387:1,2014-06-06T14:14:00Z,28.2670,-88.3990,79.7,187.0,13.1,-3.5,'1111122,1111122,1111122' 
ADCP,ioos:station:wmo:42387:1,2014-06-06T15:14:00Z,28.2670,-88.3990,79.7,189.0,14.6,-1.9,'1111122,1111122,1111122' 
ADCP,ioos:station:wmo:42387:1,2014-06-06T16:14:00Z,28.2670,-88.3990,79.7,199.0,14.5,-2.3,'1111122,1111122,1111122' 
ADCP,ioos:station:wmo:42387:1,2014-06-06T17:14:00Z,28.2670,-88.3990,79.7,193.0,16.4,-0.6,'1111122,1111122,1111122' 
ADCP,ioos:station:wmo:42387:1,2014-06-06T18:14:00Z,28.2670,-88.3990,79.7,187.0,15.5,0.2,'1111122,1111122,1111122' 
ADCP,ioos:station:wmo:42387:1,2014-06-06T19:14:00Z,28.2670,-88.3990,79.7,187.0,15.9,-1.4,'1111122,1111122,1111122' 
ADCP,ioos:station:wmo:42387:1,2014-06-06T20:14:00Z,28.2670,-88.3990,79.7,184.0,14.4,-0.8,'1111122,1111122,1111122' 
ADCP,ioos:station:wmo:42387:1,2014-06-06T21:14:00Z,28.2670,-88.3990,79.7,193.0,15.3,-1.1,'1111122,1111122,1111122' 
ADCP,ioos:station:wmo:42387:1,2014-06-06T21:34:00Z,28.2670,-88.3990,79.7,189.0,13.4,-1.4,'1111122,1111122,1111122' 
ADCP,ioos:station:wmo:42387:1,2014-06-07T00:14:00Z,28.2670,-88.3990,79.7,214.0,4.0,-4.8,'1111122,1111122,1111122' 
ADCP,ioos:station:wmo:42387:1,2014-06-07T01:14:00Z,28.2670,-88.3990,79.7,200.0,4.7,-1.5,'1111122,1111122,1111122' 
ADCP,ioos:station:wmo:42387:1,2014-06-07T02:14:00Z,28.2670,-88.3990,79.7,225.0,3.8,-1.9,'1111122,1111122,1111122' 
ADCP,ioos:station:wmo:42387:1,2014-06-07T03:14:00Z,28.2670,-88.3990,79.7,231.0,4.1,-3.8,'1111122,1111122,1111122' 
ADCP,ioos:station:wmo:42387:1,2014-06-07T04:14:00Z,28.2670,-88.3990,79.7,237.0,6.1,-3.5,'1111122,1111122,1111122' 
ADCP,ioos:station:wmo:42387:1,2014-06-07T05:14:00Z,28.2670,-88.3990,79.7,221.0,2.3,-3.2,'1111122,1111122,1111122' 
ADCP,ioos:station:wmo:42387:1,2014-06-07T06:14:00Z,28.2670,-88.3990,79.7,291.0,4.3,-3.7,'1111122,1111122,1111122' 
ADCP,ioos:station:wmo:42387:1,2014-06-07T07:14:00Z,28.2670,-88.3990,79.7,256.0,6.5,-4.5,'1111122,1111122,1111122' 
ADCP,ioos:station:wmo:42387:1,2014-06-07T07:54:00Z,28.2670,-88.3990,79.7,251.0,6.4,-3.7,'1111122,1111122,1111122' 
ADCP,ioos:station:wmo:42387:1,2014-06-07T09:14:00Z,28.2670,-88.3990,79.7,208.0,5.0,-2.5,'1111122,1111122,1111122' 
ADCP,ioos:station:wmo:42387:1,2014-06-07T10:14:00Z,28.2670,-88.3990,79.7,188.0,8.0,-2.5,'1111122,1111122,1111122' 
ADCP,ioos:station:wmo:42387:1,2014-06-07T11:14:00Z,28.2670,-88.3990,79.7,176.0,10.7,-3.6,'1111122,1111122,1111122' 
ADCP,ioos:station:wmo:42387:1,2014-06-07T13:14:00Z,28.2670,-88.3990,79.7,192.0,9.7,-5.0,'1111122,1111122,1111122' 
ADCP,ioos:station:wmo:42387:1,2014-06-07T14:14:00Z,28.2670,-88.3990,79.7,191.0,8.3,-3.7,'1111122,1111122,1111122' 
ADCP,ioos:station:wmo:42387:1,2014-06-07T14:54:00Z,28.2670,-88.3990,79.7,216.0,7.6,-4.3,'1111122,1111122,1111122' 
ADCP,ioos:station:wmo:42387:1,2014-06-07T17:14:00Z,28.2670,-88.3990,79.7,213.0,11.3,-4.4,'1111122,1111122,1111122' 
ADCP,ioos:station:wmo:42387:1,2014-06-07T19:14:00Z,28.2670,-88.3990,79.7,201.0,9.0,-5.5,'1111122,1111122,1111122' 
ADCP,ioos:station:wmo:42387:1,2014-06-07T20:14:00Z,28.2670,-88.3990,79.7,186.0,6.9,-6.0,'1111122,1111122,1111122' 
ADCP,ioos:station:wmo:42387:1,2014-06-07T21:14:00Z,28.2670,-88.3990,79.7,200.0,7.7,-4.9,'1111122,1111122,1111122' 
ADCP,ioos:station:wmo:42387:1,2014-06-07T23:14:00Z,28.2670,-88.3990,79.7,230.0,10.0,-6.4,'1111122,1111122,1111122' 
ADCP,ioos:station:wmo:42387:1,2014-06-08T00:14:00Z,28.2670,-88.3990,79.7,226.0,7.3,-6.7,'1111122,1111122,1111122' 
ADCP,ioos:station:wmo:42387:1,2014-06-08T01:14:00Z,28.2670,-88.3990,79.7,274.0,4.7,-7.0,'1111122,1111122,1111122' 
ADCP,ioos:station:wmo:42387:1,2014-06-08T03:14:00Z,28.2670,-88.3990,79.7,289.0,3.9,-4.5,'1111122,1111122,1111122' 
ADCP,ioos:station:wmo:42387:1,2014-06-08T04:14:00Z,28.2670,-88.3990,79.7,332.0,4.2,-5.4,'1111122,1111122,1111122' 
ADCP,ioos:station:wmo:42387:1,2014-06-08T05:14:00Z,28.2670,-88.3990,79.7,303.0,2.7,-4.6,'1111122,1111122,1111122' 
ADCP,ioos:station:wmo:42387:1,2014-06-08T07:14:00Z,28.2670,-88.3990,79.7,256.0,4.5,-6.1,'1111122,1111122,1111122' 
ADCP,ioos:station:wmo:42387:1,2014-06-08T08:14:00Z,28.2670,-88.3990,79.7,263.0,7.9,-6.5,'1111122,1111122,1111122' 
ADCP,ioos:station:wmo:42387:1,2014-06-08T09:14:00Z,28.2670,-88.3990,79.7,267.0,6.2,-6.7,'1111122,1111122,1111122' 
ADCP,ioos:station:wmo:42387:1,2014-06-08T10:14:00Z,28.2670,-88.3990,79.7,241.0,14.1,-6.5,'1111122,1111122,1111122' 
ADCP,ioos:station:wmo:42387:1,2014-06-08T11:14:00Z,28.2670,-88.3990,79.7,196.0,5.3,-8.4,'1111122,1111122,1111122' 
ADCP,ioos:station:wmo:42387:1,2014-06-08T12:14:00Z,28.2670,-88.3990,79.7,219.0,8.6,-7.2,'1111122,1111122,1111122' 
ADCP,ioos:station:wmo:42387:1,2014-06-08T13:14:00Z,28.2670,-88.3990,79.7,233.0,4.5,-7.2,'1111122,1111122,1111122' 
ADCP,ioos:station:wmo:42387:1,2014-06-08T14:14:00Z,28.2670,-88.3990,79.7,230.0,5.4,-7.7,'1111122,1111122,1111122' 
ADCP,ioos:station:wmo:42387:1,2014-06-08T15:14:00Z,28.2670,-88.3990,79.7,225.0,5.2,-7.9,'1111122,1111122,1111122' 
ADCP,ioos:station:wmo:42387:1,2014-06-08T15:54:00Z,28.2670,-88.3990,79.7,259.0,5.8,-8.4,'1111122,1111122,1111122' 
ADCP,ioos:station:wmo:42387:1,2014-06-08T17:14:00Z,28.2670,-88.3990,79.7,185.0,4.3,-6.6,'1111122,1111122,1111122' 
ADCP,ioos:station:wmo:42387:1,2014-06-08T18:14:00Z,28.2670,-88.3990,79.7,180.0,5.5,-5.6,'1111122,1111122,1111122' 
ADCP,ioos:station:wmo:42387:1,2014-06-08T19:14:00Z,28.2670,-88.3990,79.7,161.0,9.4,-4.9,'1111122,1111122,1111122' 
ADCP,ioos:station:wmo:42387:1,2014-06-08T20:14:00Z,28.2670,-88.3990,79.7,174.0,8.3,-6.4,'1111122,1111122,1111122' 
ADCP,ioos:station:wmo:42387:1,2014-06-08T21:14:00Z,28.2670,-88.3990,79.7,211.0,11.9,-7.0,'1111122,1111122,1111122' 
ADCP,ioos:station:wmo:42387:1,2014-06-08T22:14:00Z,28.2670,-88.3990,79.7,201.0,12.3,-3.7,'1111122,1111122,1111122' 
ADCP,ioos:station:wmo:42387:1,2014-06-08T23:14:00Z,28.2670,-88.3990,79.7,207.0,9.0,-5.3,'1111122,1111122,1111122' 
ADCP,ioos:station:wmo:42387:1,2014-06-09T00:14:00Z,28.2670,-88.3990,79.7,205.0,11.5,-6.2,'1111122,1111122,1111122' 
ADCP,ioos:station:wmo:42387:1,2014-06-09T01:14:00Z,28.2670,-88.3990,79.7,236.0,9.0,-7.3,'1111122,1111122,1111122' 
ADCP,ioos:station:wmo:42387:1,2014-06-09T02:14:00Z,28.2670,-88.3990,79.7,256.0,9.4,-7.1,'1111122,1111122,1111122' 
ADCP,ioos:station:wmo:42387:1,2014-06-09T03:14:00Z,28.2670,-88.3990,79.7,229.0,6.7,-5.4,'1111122,1111122,1111122' 
ADCP,ioos:station:wmo:42387:1,2014-06-09T04:14:00Z,28.2670,-88.3990,79.7,255.0,7.0,-8.5,'1111122,1111122,1111122' 
ADCP,ioos:station:wmo:42387:1,2014-06-09T05:14:00Z,28.2670,-88.3990,79.7,244.0,8.4,-8.2,'1111122,1111122,1111122' 
ADCP,ioos:station:wmo:42387:1,2014-06-09T06:54:00Z,28.2670,-88.3990,79.7,243.0,11.0,-7.4,'1111122,1111122,1111122' 
ADCP,ioos:station:wmo:42387:1,2014-06-09T08:14:00Z,28.2670,-88.3990,79.7,239.0,9.8,-6.5,'1111122,1111122,1111122' 
ADCP,ioos:station:wmo:42387:1,2014-06-09T09:14:00Z,28.2670,-88.3990,79.7,243.0,10.8,-7.7,'1111122,1111122,1111122' 
ADCP,ioos:station:wmo:42387:1,2014-06-09T10:14:00Z,28.2670,-88.3990,79.7,263.0,9.1,-9.5,'1111122,1111122,1111122' 
ADCP,ioos:station:wmo:42387:1,2014-06-09T11:14:00Z,28.2670,-88.3990,79.7,196.0,8.4,-8.5,'1111122,1111122,1111122' 
ADCP,ioos:station:wmo:42387:1,2014-06-09T12:14:00Z,28.2670,-88.3990,79.8,241.0,3.7,-8.5,'1111122,1111122,1111122' 
ADCP,ioos:station:wmo:42387:1,2014-06-09T14:14:00Z,28.2670,-88.3990,79.7,240.0,5.3,-7.5,'1111122,1111122,1111122' 
ADCP,ioos:station:wmo:42387:1,2014-06-09T15:14:00Z,28.2670,-88.3990,79.7,261.0,4.6,-8.2,'1111122,1111122,1111122' 
ADCP,ioos:station:wmo:42387:1,2014-06-09T16:14:00Z,28.2670,-88.3990,79.7,248.0,3.5,-6.5,'1111122,1111122,1111122' 
ADCP,ioos:station:wmo:42387:1,2014-06-09T17:14:00Z,28.2670,-88.3990,79.7,207.0,5.1,-6.3,'1111122,1111122,1111122' 
ADCP,ioos:station:wmo:42387:1,2014-06-09T18:14:00Z,28.2670,-88.3990,79.7,178.0,6.4,-5.6,'1111122,1111122,1111122' 
ADCP,ioos:station:wmo:42387:1,2014-06-09T19:14:00Z,28.2670,-88.3990,79.7,191.0,11.6,-5.1,'1111122,1111122,1111122' 
ADCP,ioos:station:wmo:42387:1,2014-06-09T21:14:00Z,28.2670,-88.3990,79.7,192.0,14.8,-5.1,'1111122,1111122,1111122' 
ADCP,ioos:station:wmo:42387:1,2014-06-09T22:14:00Z,28.2670,-88.3990,79.7,197.0,14.2,-6.2,'1111122,1111122,1111122' 
ADCP,ioos:station:wmo:42387:1,2014-06-09T23:14:00Z,28.2670,-88.3990,79.7,194.0,12.5,-9.6,'1111122,1111122,1111122' 
ADCP,ioos:station:wmo:42387:1,2014-06-10T00:14:00Z,28.2670,-88.3990,79.7,197.0,12.2,-8.9,'1111122,1111122,1111122' 
ADCP,ioos:station:wmo:42387:1,2014-06-10T01:14:00Z,28.2670,-88.3990,79.7,224.0,9.3,-10.4,'1111122,1111122,1111122' 
ADCP,ioos:station:wmo:42387:1,2014-06-10T02:14:00Z,28.2670,-88.3990,79.7,246.0,14.6,-9.0,'1111122,1111122,1111122' 
ADCP,ioos:station:wmo:42387:1,2014-06-10T03:14:00Z,28.2670,-88.3990,79.7,253.0,15.7,-10.7,'1111122,1111122,1111122' 
ADCP,ioos:station:wmo:42387:1,2014-06-10T04:14:00Z,28.2670,-88.3990,79.7,254.0,16.3,-9.9,'1111122,1111122,1111122' 
ADCP,ioos:station:wmo:42387:1,2014-06-10T05:14:00Z,28.2670,-88.3990,79.7,260.0,15.2,-9.8,'1111122,1111122,1111122' 
ADCP,ioos:station:wmo:42387:1,2014-06-10T07:14:00Z,28.2670,-88.3990,79.7,248.0,11.4,-8.6,'1111122,1111122,1111122' 
ADCP,ioos:station:wmo:42387:1,2014-06-10T08:14:00Z,28.2670,-88.3990,79.7,259.0,11.4,-11.0,'1111122,1111122,1111122' 
ADCP,ioos:station:wmo:42387:1,2014-06-10T09:14:00Z,28.2670,-88.3990,79.7,268.0,11.1,-11.9,'1111122,1111122,1111122' 
ADCP,ioos:station:wmo:42387:1,2014-06-10T10:14:00Z,28.2670,-88.3990,79.7,272.0,12.7,-12.0,'1111122,1111122,1111122' 
ADCP,ioos:station:wmo:42387:1,2014-06-10T11:14:00Z,28.2670,-88.3990,79.7,223.0,13.4,-5.5,'1111122,1111122,1111122' 